www.pogodaiklimat.ru
ПОГОДА в Бугуни
Время
(UTC), дата
06 22.03
09 22.03
12 22.03
15 22.03
18 22.03
21 22.03
00 23.03
03 23.03
06 23.03
09 23.03
12 23.03
15 23.03
18 23.03
21 23.03
00 24.03
03 24.03
06 24.03
09 24.03
12 24.03
15 24.03
18 24.03
21 24.03
00 25.03
03 25.03
06 25.03
09 25.03
12 25.03
15 25.03
18 25.03
21 25.03
00 26.03
03 26.03
06 26.03
09 26.03
12 26.03
15 26.03
18 26.03
21 26.03
00 27.03
03 27.03
06 27.03
09 27.03
12 27.03
15 27.03
18 27.03
21 27.03
00 28.03
03 28.03
06 28.03
09 28.03
12 28.03
15 28.03
18 28.03
21 28.03
00 29.03
03 29.03
Ветер
(напр.,м/с)
Видим. Явления Облачность Т
(С)
Тd
(С)
f
(%)
Тe
(С)
Тes
(С)
Комфортность P
(гПа)
Po
(гПа)
Тmin
(С)
Tmax
(С)
R
(мм)
R24
(мм)
S
(см)
Ю 1 10 км 6/1 600 м
[Sc Ci fib]
+28.0 +21.4 67 +35 +35 очень
душно
1007.2 969.4 +28.0
штиль 0 10 км 6/0
[Ci fib]
+31.6 +21.8 56 +40 +50 очень
душно
1009.0 971.4
штиль 0 10 км 5/3 600 м
[Cu hum Ac trans]
+38.2 +21.3 38 +45 +62 опасность
перегрева
1007.6 970.1
В 2 10 км 6/4 600 м
[Cu med, cong Ac lent]
+42.0 +21.3 31 +49 +55 опасность
перегрева
1004.0 966.7
штиль 0 10 км 6/3 600 м
[Cu med, cong Ac lent]
+38.4 +20.5 36 +45 +45 опасность
перегрева
1003.1 965.6 +42.7
штиль 0 10 км зарница 6/3 600 м
[Cb cap Ac lent]
+35.2 +19.8 41 +41 +41 опасность
перегрева
1006.1 968.5
штиль 0 10 км 6/3 600 м
[Cu med, cong Ac lent]
+33.0 +20.1 47 +39 +39 очень
душно
1006.7 969.3
В 2 10 км 8/3 600 м
[Cu med, cong Ac lent Ci fib]
+32.4 +18.9 45 +38 +38 очень
душно
1005.9 968.7
В 2 10 км 6/1 600 м
[Sc Ci fib]
+28.0 +21.4 67 +35 +35 очень
душно
1007.2 969.4 +20.8
Ю 4 10 км 9/0
[Ac trans Ci fib]
+28.0 +21.4 67 +35 +39 очень
душно
1011.7 973.6
Ю 3 10 км 9/0
[Ac trans Ci fib]
+34.5 +20.0 43 +41 +49 опасность
перегрева
1010.0 972.3
СВ 2 10 км 9/0
[Ac trans Ci fib]
+37.1 +18.4 33 +41 +48 опасность
перегрева
1005.6 968.2
СВ 2 10 км 9/0
[Ac trans]
+35.3 +18.4 37 +40 +40 очень
душно
1006.5 968.6 +37.6
штиль 0 10 км 9/0
[Ac trans]
+33.0 +19.0 44 +38 +38 очень
душно
1008.3 970.2
СЗ 2 10 км 8/0
[Ac trans Ci fib]
+30.0 +19.0 52 +35 +35 очень
душно
1008.2 970.4
З 2 10 км 8/0
[Ac trans Ci fib]
+28.6 +18.7 55 +34 +34 очень
душно
1007.1 969.4
З 2 10 км 9/0
[Ac trans]
+28.3 +20.8 64 +35 +35 очень
душно
1007.7 969.8 +28.2
З 2 10 км 9/0
[Ac trans Ci fib]
+29.9 +21.3 60 +38 +41 очень
душно
1010.2 972.2
СЗ 3 10 км 8/0
[Ac lent Ci fib]
+35.5 +13.9 27 +36 +45 очень
жарко
1009.3 971.5
СЗ 2 10 км 8/0
[Ac lent Ci sp]
+38.5 +14.2 24 +39 +47 душно 1006.7 969.1
СЗ 2 10 км 8/0
[Ac lent Ci sp]
+36.3 +14.7 28 +38 +38 очень
душно
1006.3 968.5 +38.8
штиль 0 10 км 5/0
[Ci fib]
+31.5 +13.9 34 +33 +33 жарко 1009.1 971.0
штиль 0 10 км 5/0
[Ci fib]
+29.5 +13.0 36 +31 +31 жарко 1009.3 971.4
штиль 0 10 км 5/0
[Ci fib]
+26.6 +12.0 40 +28 +28 жарко 1008.5 970.7
штиль 0 10 км 6/0
[Ac lent Ci fib]
+24.6 +12.1 46 +26 +26 жарко 1010.2 972.1 +24.5
СВ 2 10 км 9/3 600 м
[Sc Ac As]
+29.5 +20.1 57 +36 +38 очень
душно
1011.5 973.3
штиль 0 10 км 8/0
[Ci fib]
+34.0 +15.6 33 +36 +60 опасность
солнечного
удара
1010.4 972.4
Ю 2 10 км 8/0
[Ci fib]
+37.0 +14.6 26 +38 +49 душно 1006.8 969.0
штиль 0 10 км 6/0
[Ci fib]
+35.4 +13.5 27 +36 +36 очень
жарко
1006.2 968.2 +38.0
штиль 0 10 км 6/0
[Ci fib]
+31.2 +21.3 56 +39 +39 очень
душно
1008.2 970.1
штиль 0 10 км 6/0
[Ci fib]
+29.7 +21.2 60 +37 +37 очень
душно
1008.3 970.0
штиль 0 10 км 6/0
[Ci fib]
+26.4 +12.0 41 +28 +28 жарко 1008.5 970.7
штиль 0 10 км 6/0
[Ac As Ci fib]
+25.5 +20.3 73 +31 +31 очень
душно
1007.9 969.8 +25.0
СВ 2 10 км 8/0
[Ac trans Ci fib]
+28.6 +11.5 35 +29 +35 жарко 1009.9 971.7
ЮВ 3 10 км 4/0
[Ci fib]
+37.5 +12.6 23 +37 +54 опасность
солнечного
удара
1008.0 970.3
штиль 0 10 км 6/0
[Ac trans Ci fib]
+39.6 +16.0 25 +41 +55 опасность
перегрева
1004.6 967.1
ЮВ 2 10 км 8/0
[Ac trans Ci fib]
+37.1 +16.3 29 +39 +39 очень
душно
1004.1 966.3 +39.7
СВ 2 10 км 8/0
[Ac trans Ci fib]
+34.6 +15.4 32 +37 +37 очень
душно
1006.7 968.8
штиль 0 10 км 9/0
[Ac As]
+32.8 +15.2 35 +35 +35 душно 1007.1 969.6
штиль 0 10 км 9/0
[Ac As]
+30.6 +12.4 33 +31 +31 жарко 1006.3 968.9
штиль 0 10 км 9/0
[Ac As]
+29.3 +13.6 38 +31 +31 жарко 1007.0 969.3 +29.3
Ю 2 10 км 9/0
[Ac trans Ci fib]
+31.2 +22.3 59 +40 +44 очень
душно
1009.7 971.9
Ю 2 10 км 9/0
[Ac lent Ci fib]
+37.0 +16.6 30 +39 +49 очень
душно
1008.5 971.0
В 2 10 км 9/0
[Ac lent Ci fib]
+39.4 +17.0 27 +42 +50 опасность
перегрева
1005.2 967.8
ЮЗ 2 10 км 9/0
[Ac lent Ci fib]
+37.0 +16.4 30 +39 +40 очень
душно
1005.1 967.5 +39.4
Ю 2 10 км 6/0
[Ac lent Ci fib]
+33.6 +18.3 40 +38 +38 очень
душно
1007.8 970.0
Ю 3 10 км 6/0
[Ac lent Ci fib]
+31.5 +21.3 55 +39 +39 очень
душно
1008.9 971.3
Ю 2 10 км 6/0
[Ac lent Ci fib]
+29.0 +21.9 66 +37 +37 очень
душно
1006.9 969.3
штиль 0 10 км 8/0
[Ac lent Ci fib]
+27.9 +21.1 67 +35 +35 очень
душно
1007.4 969.6 +27.9
штиль 0 10 км 6/1 600 м
[Cu med, cong Ac trans Ci fib]
+31.6 +22.6 59 +41 +48 опасность
перегрева
1009.3 971.5
штиль 0 10 км 8/0
[Ac trans Ci fib]
+37.4 +23.4 45 +48 +71 опасность
перегрева
1008.3 970.9
штиль 0 10 км 8/5 600 м
[Cb calv Ac As]
+41.3 +20.9 31 +47 +53 опасность
перегрева
1005.4 968.0
штиль 0 10 км 8/3 600 м
[Cu med, cong Ac trans Ci fib]
+36.6 +21.4 41 +44 +44 опасность
перегрева
1005.2 967.5 +41.7
штиль 0 5000 м гроза без осадков 8/5 600 м
[Cb cap Ac trans]
+33.6 +21.0 48 +41 +41 опасность
перегрева
1008.5 970.7
штиль 0 10 км {гроза, дождь} 8/4 600 м
[Sc Ac As]
+31.0 +21.1 56 +39 +39 очень
душно
1009.4 971.7 0.2
штиль 0 10 км 6/3 600 м
[Sc Ac As]
+27.1 +20.1 66 +33 +33 очень
душно
1010.4 972.1
Местоположение метеостанции Бугуни (Мали): широта 11.42 долгота -7.50 высота над уровнем моря 351 м.
В архиве по умолчанию представлена погода в Бугуни за последнюю неделю. Архивные данные за месяц целиком и за предыдущие месяцы, начиная с января 2011 года, Вы можете получить, выбрав интересующий диапазон дат из раскрывающегося списка и нажав кнопку "Найти!".
*Определитесь, кто Вы:
Внимание! Время в таблицах - всемирное. Для получения местного времени необходимо прибавить поправку, которая равна 0 ч.
Смотрите также архив погоды в соседних городах и на ближайших метеорологических станциях:
Партнеры нашего сайта:      
Пояснения к столбцам:
  • Ветер - указаны скорость ветра в м/с - средняя за 10 мин, порывы в срок и между сроками (в фигурных скобках) и направление, откуда дует ветер: С - северный,
  • СВ - северо-восточный, В - восточный, ЮВ - юго-восточный, Ю - южный, ЮЗ - юго-западный, З - западный, СЗ - северо-западный.
  • Видимость - горизонтальная дальность видимости в метрах или километрах. При видимости от 1 до 10 км при отсутствии осадков обычно наблюдается дымка, при ухудшении видимости до 1 км и менее - туман. В сухую погоду видимость может ухудшаться дымом, пылью или мглою.
  • Явления - указаны атмосферные явления, наблюдавшиеся в срок или в последний час перед сроком; фигурными скобками обозначены явления, наблюдавшиеся между сроками (за 1-3 часа до срока); квадратными скобками обозначены град или гололедные отложения с указанием их диаметра в мм.
  • Облачность - указаны через наклонную черту общая и нижняя облачность в баллах и высота нижней границы облаков в метрах; квадратными скобками обозначены формы облаков: Ci - перистые, Cs - перисто-слоистые, Cc - перисто-кучевые, Ac - высококучевые, As - высокослоистые, Sc - слоисто-кучевые, Ns - слоисто-дождевые, Cu - кучевые, Cb - кучево-дождевые. Подробнее классификацию облаков см. в Атласе облаков (PDF).
  • T - Температура воздуха - температура, измеренная на высоте 2 м над землей.
  • Td - Температура точки росы - температура, при понижении до которой содержащийся в воздухе водяной пар достигнет насыщения.
  • f - Относительная влажность воздуха - влажноcть воздуха, измеренная на высоте 2 м над землей.
  • Te - Эффективная температура - температура, которую ощущает одетый по сезону человек в тени. Характеристика душности погоды. При расчете учитывается влияние влажности воздуха и скорости ветра на теплоощущения человека.
  • Tes - Эффективная температура на солнце - температура, которую ощущает человек, с поправкой на солнечный нагрев. Характеристика знойности погоды. Зависит от высоты солнца над горизонтом, облачности и скорости ветра. Ночью, в пасмурную погоду, а также при ветре 12 м/с и более поправка равна нулю.
  • P - Атмосферное давление - приведенное к уровню моря атмосферное давление.
  • Po - Атмосферное давление - измеренное на уровне метеостанции атмосферное давление.
  • Tmin - Минимальная температура - минимум температуры воздуха на высоте 2 м над землей.
  • Tmax - Максимальная температура - максимум температуры воздуха на высоте 2 м над землей.
  • R - Количество осадков - Количество выпавших осадков за период времени, мм. При наведении курсора мыши на число - период времени, за который выпало указанное количество осадков.
  • R24 - Количество осадков - Количество выпавших осадков за 24 часа, мм.
  • S - Снежный покров - Высота снежного покрова, см. При наведении курсора мыши на число - состояние снежного покрова и степень покрытия местности в баллах.